Dewpoint
42 40 43 45 49 49 48 47 46 48 50 48 48 48 49 59 59 58 58 58 60 61 62 63 64 66 66 68 68 70 69 70 71 70 69 68 67 68 68 67 66 66 69 70
38 40 41 43 44 43 43 43 45 48 50 47 49 47 45 56 59 59 59 59 60 61 62 63 64 66 67 67 67 68 69 69 70 69 69 69 68 69 68 67 67 67 70 71
38 40 41 40 39 38 40 44 46 46 48 49 46 40 40 44 54 59 60 60 60 61 61 62 63 64 66 66 67 67 68 69 69 69 69 70 70 69 68 67 67 67 70 71
38 39 39 39 38 38 33 40 43 43 42 38 41 37 38 43 46 52 55 56 56 58 61 62 63 63 64 66 67 67 68 69 69 70 69 68 68 68 68 67 67 67 69 69
37 36 36 35 35 34 29 31 35 41 42 40 40 37 37 42 42 44 47 48 49 55 56 61 62 63 64 66 67 67 68 69 69 70 69 69 68 68 68 68 68 67 68 69
38 31 29 30 27 26 26 35 40 41 40 36 39 38 36 39 41 43 45 47 48 47 53 58 62 63 64 66 67 68 68 68 69 70 69 69 69 68 68 68 68 68 69 69
32 33 29 26 29 27 34 35 36 35 35 33 44 40 38 41 45 47 46 47 49 51 52 57 61 63 64 66 67 68 68 68 69 69 69 69 69 69 68 68 68 68 68 68
28 24 29 27 28 28 30 38 36 32 29 31 43 35 37 44 48 47 48 45 44 48 52 56 60 62 64 65 67 67 68 68 69 69 69 70 69 69 69 68 68 68 68 69
23 25 24 24 26 22 27 30 37 35 35 33 37 41 42 43 42 45 45 44 43 43 50 54 58 61 63 65 66 67 68 68 69 69 69 69 70 69 69 69 69 69 69 69
22 17 19 20 22 35 25 34 32 33 28 27 36 40 35 35 38 42 41 41 43 43 43 44 55 60 65 66 67 68 68 68 69 70 70 70 70 70 70 70 69 69 70 70
21 18 13 14 14 16 35 33 36 36 34 28 28 33 41 39 40 41 41 44 42 42 41 42 45 58 63 66 67 67 68 68 69 70 70 70 70 70 70 70 70 70 70 69
19 18 16 15 15 17 29 30 36 30 32 36 33 30 38 42 44 46 44 42 42 43 43 47 53 59 61 64 66 67 68 68 69 70 70 70 70 70 70 70 70 70 70 70
18 16 13 13 13 19 18 33 35 36 39 34 31 29 43 45 46 46 44 42 45 49 46 53 57 58 60 62 65 66 68 68 69 70 70 70 70 70 70 71 71 71 71 71
18 14 13 9 11 15 19 32 36 34 31 32 33 30 35 38 44 41 41 47 58 61 60 54 55 58 60 63 63 64 67 68 69 70 70 70 70 70 70 71 71 71 71 71
13 9 14 14 14 16 13 14 34 32 32 28 28 33 34 40 42 43 55 60 61 62 63 64 65 65 62 61 63 64 65 67 68 68 70 70 71 71 71 71 71 71 71 71
14 11 13 12 14 13 33 39 26 40 34 33 32 33 42 51 58 59 59 59 58 60 62 64 66 67 68 68 66 63 64 66 68 68 69 70 70 71 71 71 71 72 71 71
14 13 12 10 13 28 28 39 44 45 44 43 31 38 52 56 56 57 56 56 55 55 57 61 64 64 67 70 69 67 63 66 69 69 70 70 70 71 71 72 72 71 71 70
13 13 13 11 17 11 37 44 43 42 41 44 46 46 55 52 51 51 53 54 53 54 54 56 58 58 62 66 69 69 65 66 68 69 69 70 70 70 71 72 72 72 71 71
14 15 13 12 27 38 42 41 40 43 43 42 51 52 48 48 46 46 50 50 51 53 54 54 55 60 61 61 64 66 68 70 68 67 67 68 70 70 71 71 72 72 71 69
24 21 15 32 33 33 37 39 39 41 43 39 45 47 49 48 40 41 45 49 48 51 52 51 51 52 57 62 61 58 58 59 63 71 72 70 69 69 70 71 72 71 70 63
24 26 21 33 31 34 38 39 40 37 40 39 41 39 38 38 40 42 45 47 48 49 50 50 50 51 53 59 62 60 62 60 62 65 72 72 72 71 71 71 71 70 70 69
32 30 34 35 32 30 39 39 38 39 39 40 40 42 43 43 44 46 47 48 49 49 50 50 49 51 53 55 56 56 57 64 64 64 69 71 72 72 71 70 70 69 69 68
34 37 36 37 37 42 44 41 41 41 41 43 44 45 47 47 47 47 48 49 50 50 50 50 49 49 50 52 54 54 56 60 64 63 63 68 72 71 70 69 68 68 68 68
40 40 37 37 43 45 45 46 46 46 46 47 47 47 47 47 47 47 48 49 49 49 49 49 49 49 49 51 52 53 55 57 60 61 62 66 68 69 66 67 66 66 66 66
42 41 41 42 44 44 46 46 47 47 47 47 48 48 48 47 48 48 48 48 49 48 49 49 49 49 49 51 52 53 53 55 55 59 61 62 65 65 64 64 64 64 65 65
43 40 39 39 46 44 46 47 48 47 47 48 47 47 48 48 47 47 47 47 48 48 48 48 49 49 50 51 52 52 53 54 54 54 58 61 63 64 61 62 62 63 62 62
Wind_Speed
2 2 6 1 1 0 3 4 8 9 3 3 4 8 6 21 19 18 19 18 18 25 15 19 18 18 19 21 21 20 20 17 16 11 12 10 11 7 8 9 7 6 6 5
1 8 4 4 1 5 7 8 9 13 5 2 5 10 10 14 22 26 23 17 22 19 14 18 20 26 21 24 25 23 23 20 18 14 10 6 6 7 6 7 7 7 7 7
8 4 3 2 2 8 4 3 5 8 6 1 4 6 7 2 12 16 19 17 16 21 19 20 24 26 24 24 25 26 26 24 21 17 12 5 3 1 5 5 5 8 8 9
6 5 7 5 6 2 6 1 7 10 3 2 4 3 4 8 10 6 14 17 20 24 20 20 25 24 26 28 22 21 20 23 20 19 18 17 15 15 9 10 7 9 9 10
8 2 4 5 3 2 5 9 11 5 6 1 4 1 2 5 6 6 4 8 14 22 19 26 28 29 24 21 22 18 20 20 19 21 20 20 16 15 9 8 11 9 10 10
8 1 2 4 6 6 10 2 5 6 3 3 3 1 4 1 2 8 11 17 17 15 13 20 22 23 21 19 20 23 22 22 21 22 21 22 21 19 15 12 13 13 11 11
5 10 6 3 10 4 2 2 3 1 1 4 2 1 7 4 2 4 13 16 15 9 5 15 21 21 20 28 28 26 25 24 23 23 22 23 22 20 20 17 16 15 13 11
11 6 9 5 11 4 1 5 5 5 5 3 1 3 2 4 4 6 7 9 9 11 2 12 19 20 23 26 24 26 28 23 23 23 23 21 20 18 18 18 16 16 16 14
10 8 4 6 5 6 3 3 2 6 2 1 2 6 11 4 3 2 6 7 12 9 7 9 12 17 19 21 24 24 23 21 21 22 20 20 19 19 18 17 16 15 15 15
7 3 3 1 4 5 4 5 2 1 5 4 3 6 7 7 8 7 6 8 11 15 11 8 10 17 18 19 19 19 18 22 22 21 19 19 19 17 16 15 19 18 16 16
8 3 2 3 5 11 3 3 5 5 3 5 4 7 12 14 14 9 6 8 12 16 14 7 9 14 18 17 18 19 19 20 20 21 20 20 20 19 17 19 17 18 17 17
13 10 14 17 6 1 3 7 9 5 5 2 2 8 5 17 6 6 8 13 16 17 14 4 3 11 17 19 20 20 19 22 22 19 20 21 17 16 19 20 18 17 18 17
15 6 4 4 1 2 6 7 6 8 5 11 5 9 5 10 5 6 11 15 17 20 14 12 3 8 11 14 16 16 18 20 16 17 19 18 19 19 22 22 20 18 17 17
23 8 10 22 8 6 6 7 8 7 7 9 12 15 8 15 6 9 13 13 16 19 22 19 19 9 2 5 10 15 16 15 16 17 19 21 23 23 21 22 20 19 19 20
16 17 15 12 11 5 1 4 12 13 10 10 14 12 14 2 11 9 11 15 22 23 26 22 22 19 17 8 9 11 14 15 15 17 19 24 18 18 19 19 22 22 20 16
4 11 11 12 9 9 3 3 6 3 3 6 4 5 4 12 23 21 18 20 22 20 21 20 20 20 20 17 15 10 17 14 15 18 21 14 16 17 20 21 21 18 16 14
11 13 9 20 7 11 3 2 6 7 7 3 6 3 10 21 26 20 19 20 19 18 18 20 20 18 19 21 18 16 10 9 16 18 17 16 16 19 21 18 17 18 14 16
9 12 5 6 8 8 1 14 20 19 12 13 2 11 17 25 22 20 18 20 20 19 20 21 20 21 21 19 21 19 16 2 10 13 15 15 17 19 18 18 21 16 15 19
4 8 7 9 6 6 3 7 1 5 7 14 10 20 24 22 24 21 18 17 16 16 17 18 17 17 22 25 22 21 23 19 13 8 10 12 14 18 17 20 21 13 8 12
8 6 8 5 9 10 4 6 8 3 6 8 9 6 3 2 18 9 13 14 18 18 18 18 19 24 24 23 19 22 24 23 23 18 16 12 12 16 18 18 10 5 13 6
4 4 8 9 6 2 4 12 5 4 8 4 8 10 13 22 12 6 10 18 17 17 20 18 21 22 19 19 20 25 23 26 22 20 17 14 10 10 13 9 9 9 10 6
4 3 4 4 6 6 16 3 7 12 14 13 14 15 20 17 13 13 18 18 16 16 17 17 16 17 19 24 24 22 23 19 20 21 19 17 13 8 6 4 3 2 3 4
3 1 8 3 5 5 7 16 16 20 19 13 16 12 15 16 15 8 25 18 10 10 13 14 16 19 23 25 20 20 22 20 19 20 21 20 14 6 6 6 8 9 10 9
4 5 10 7 5 11 15 21 19 18 20 17 16 14 15 15 15 17 10 3 10 17 18 18 19 21 21 21 20 19 20 21 20 19 18 17 11 8 10 11 12 15 16 15
2 6 8 12 13 17 17 16 14 16 15 16 16 17 18 16 16 13 13 17 18 15 17 17 18 16 19 19 19 19 20 20 21 19 15 11 5 3 5 8 13 14 13 13
7 4 8 7 6 15 9 13 13 18 17 17 18 16 18 17 16 15 16 17 19 20 20 20 18 17 18 18 19 21 21 20 19 19 17 14 7 9 10 9 9 13 18 25
Wind_Direction
58 170 222 135 266 240 310 286 282 275 237 203 238 280 248 206 209 216 215 210 217 220 202 200 181 165 191 184 183 190 187 191 180 191 202 222 229 231 237 224 217 232 214 188
329 256 241 133 236 316 299 289 290 289 244 311 12 316 310 211 221 214 216 211 221 232 200 190 176 183 185 188 187 188 192 188 191 188 192 193 197 230 235 216 201 224 204 188
205 196 77 84 349 322 297 246 276 265 356 83 323 320 340 351 258 216 226 227 225 223 215 191 185 194 194 192 189 192 191 190 190 186 169 159 161 206 223 216 201 211 197 192
245 265 264 268 284 211 337 285 276 275 241 283 26 297 290 330 1 218 229 230 230 227 211 200 197 194 200 193 187 191 192 189 189 176 184 195 203 209 216 222 206 199 212 214
213 221 212 209 171 143 268 323 308 234 175 135 12 322 238 345 360 31 334 298 284 247 211 199 197 201 200 172 181 185 187 191 188 184 186 195 207 213 205 212 215 206 214 216
210 308 289 143 297 300 292 360 42 57 92 328 321 4 298 157 294 312 321 319 316 286 248 206 199 197 183 157 136 228 193 196 190 186 188 195 206 212 211 211 215 221 218 220
289 267 266 177 303 344 89 50 321 223 22 238 319 296 251 248 259 293 315 323 330 331 220 196 193 190 174 169 183 193 186 195 191 189 193 198 206 210 213 214 214 218 219 222
199 250 208 188 206 220 299 173 190 211 212 230 297 248 267 215 288 268 294 302 339 5 311 210 201 194 186 178 181 180 189 192 188 192 199 199 203 207 212 212 212 220 222 219
172 238 272 233 156 161 185 234 160 114 63 212 281 284 292 285 178 281 308 335 348 344 306 264 208 197 186 182 185 187 186 190 190 198 197 200 204 205 209 209 210 215 219 224
190 214 226 216 128 63 190 132 146 75 180 250 285 288 234 269 228 255 316 336 343 337 332 296 233 201 189 184 186 188 190 193 192 196 199 199 205 208 210 203 215 215 220 219
149 180 271 151 188 179 141 154 72 109 128 191 245 258 225 236 218 220 288 309 334 329 336 302 253 200 184 178 184 190 192 193 194 196 197 197 203 207 208 214 214 216 218 218
189 205 237 249 247 309 180 180 173 194 207 122 160 264 251 231 213 262 303 341 337 328 332 23 169 176 176 186 188 194 194 199 201 195 195 207 206 201 209 216 219 216 220 217
167 203 212 321 19 139 199 185 158 124 116 195 196 267 304 251 245 345 338 333 344 357 24 42 64 175 192 192 193 198 203 209 203 192 195 201 209 211 211 218 218 219 219 221
156 163 193 220 210 168 180 179 173 148 184 186 223 259 262 241 116 35 25 20 28 19 31 45 40 18 348 240 222 218 218 210 200 196 200 205 207 207 210 216 215 216 212 218
169 206 208 223 215 214 149 179 179 198 198 194 242 229 263 45 110 61 55 40 38 30 29 24 32 28 31 1 267 239 232 217 204 202 206 218 216 210 209 213 213 217 217 210
169 214 188 230 206 216 134 52 170 168 187 250 193 247 93 89 87 67 56 52 39 27 28 25 28 18 14 7 4 295 257 230 204 212 224 226 217 213 217 222 223 211 213 170
175 180 162 234 159 139 173 219 160 124 71 266 202 119 115 90 79 65 59 55 44 30 30 28 27 15 10 7 357 349 309 221 210 218 226 228 221 220 224 229 229 218 195 141
171 174 149 163 120 186 332 106 107 92 42 15 189 151 115 104 93 66 46 51 42 32 32 33 26 20 18 16 17 19 29 256 222 230 237 234 226 229 229 227 234 226 192 200
158 150 129 161 93 113 237 259 154 156 33 16 90 128 129 115 81 49 30 43 43 37 34 38 34 27 23 23 19 30 33 32 28 346 296 273 255 246 238 236 242 237 206 40
101 82 128 142 143 188 196 131 3 130 75 22 90 78 266 114 87 50 18 39 48 49 40 35 36 40 28 17 18 32 30 21 11 343 324 305 264 246 244 247 247 211 144 137
81 65 162 139 115 148 2 311 305 179 159 75 63 82 92 88 94 77 40 43 46 42 37 30 32 37 21 14 27 26 18 15 350 341 336 328 312 277 258 244 226 221 212 229
129 133 129 119 118 173 349 324 184 133 110 103 83 80 83 83 73 67 59 31 26 44 40 34 32 23 18 21 20 16 13 350 349 351 350 344 338 321 300 263 227 174 215 209
53 146 137 65 117 21 11 80 82 93 92 77 83 71 84 68 61 58 61 12 332 31 36 35 31 18 16 13 10 2 345 347 349 358 358 352 345 19 80 118 121 116 124 135
54 21 117 97 58 61 51 64 65 75 83 76 67 64 68 69 51 49 52 295 20 19 18 23 21 14 2 357 350 347 342 345 344 351 356 360 17 87 119 138 146 157 174 157
4 347 113 98 128 89 46 54 68 70 67 66 61 57 49 40 36 36 24 15 17 360 5 11 10 355 343 339 332 332 337 342 340 334 338 346 358 210 202 205 185 195 222 209
353 155 138 168 97 106 79 58 59 64 59 55 50 41 38 36 30 19 20 10 9 1 358 358 350 341 330 324 324 322 324 326 328 328 321 321 297 249 249 253 255 265 274 280